User: anonymous   Login
Location: Unspecified
(0.0000°N, 0.0000°E)
Time: 01:19:21
(UTC+00:00)
Language:

Meteor 2-7 - Orbit

View from above orbital plane
View from above orbital plane
View from above satellite
View from above satellite

Ground track
Ground track

The orbit data is extracted from the following two-line orbital elements,

1 12456U 81043A   18200.57953746 -.00000129 +00000-0 -79119-4 0  9996
2 12456 081.2652 027.1741 0047659 040.7209 319.7509 14.10326316911685
Epoch (UTC): 19 July 2018 13:54:32
Eccentricity: 0.0047659
inclination: 81.2652°
perigee height: 824 km
apogee height: 893 km
right ascension of ascending node: 27.1741°
argument of perigee: 40.7209°
revolutions per day: 14.10326316
mean anomaly at epoch: 319.7509°
orbit number at epoch: 91168

The dashed part of the orbit path shows where the satellite is in the earth's shadow,  

DLR